Location: Chenereilles
(45.4866°N, 4.0790°E)
Time: 09:51:25
(UTC+00:00)

Cosmos 1697 Rocket - Pass Details

Date: 12 November 2019
Orbit: 834 x 842 km, 71.0° (Epoch: 15 December)

Event Time Altitude Azimuth Distance (km) Brightness Sun altitude
Rises 18:18:41 0° 189° (S) 3,383 6.0 -21.4°
Reaches altitude 10° 18:21:10 10° 185° (S) 2,452 5.2 -21.8°
Maximum altitude 18:26:37 54° 110° (ESE) 1,020 2.7 -22.8°
Enters shadow 18:27:04 52° 92° (E) 1,037 2.7 -22.8°
